Back to catalog

COSMOS 1275 DEB

LostPO
NORAD 42162·DEBRIS·🇷🇺 Russia

Launched Jun 4, 1981 from Plesetsk Cosmodrome

Loading…

Next Passes (next 24 hours)

TLE

StaleSource: Space-Track

Epoch: Aug 8, 2026, 02:33 UTC

1 42162U 81053SA  26220.10688751  .00000974  00000-0  73417-3 0  9995
2 42162  82.8772 136.3350 0073055 196.7969 222.5250 13.92088159645402

Track COSMOS 1275 DEB in real time with AllMySat

Download on the App Store